This demonstration page uses our WeatherBlox Daily Observations layout. Learn more.

Left ArrowRight Arrow

39.01783, -85.05884

Hourly Observations for October 26, 2021

Temp ( °F °C ) Dew Point ( °F °C ) Humidity (%) Winds ( mph kmh ) Pressure ( in mb ) Visibility ( mi km ) Precip ( " mm )
12:52 am 00:52 Cloudy 50 10 46 7.8 86 86 WNW 12 19 29.89 1012 10 16 0.00 0.00
1:16 am 01:16 Cloudy 50 10 46 7.8 86 86 NNW 12 19 29.91 1013 10 16 N/A
1:52 am 01:52 Cloudy 50 10 45 7.2 83 83 NW 17 28 29.91 1013 10 16 N/A
2:52 am 02:52 Cloudy 49 9.4 43 6.1 80 80 N 13 20 29.92 1013 10 16 0.00 0.00
2:54 am 02:54 Cloudy 49 9.4 43 6.1 80 80 N 13 20 29.94 1014 10 16 N/A
3:52 am 03:52 Cloudy 49 9.4 42 5.6 77 77 NNW 15 24 29.94 1014 10 16 0.00 0.00
4:52 am 04:52 Cloudy 49 9.4 41 5 74 74 NNW 15 24 29.96 1015 10 16 N/A
5:52 am 05:52 Cloudy 48 8.9 40 4.4 74 74 N 13 20 29.98 1015 10 16 N/A
6:52 am 06:52 Cloudy 48 8.9 39 3.9 71 71 NNW 18 30 30.00 1016 10 16 N/A
7:37 am 07:37 Cloudy 47 8.3 38 3.3 71 71 N 10 17 30.03 1017 10 16 N/A
7:52 am 07:52 Cloudy 47 8.3 38 3.3 71 71 N 10 17 30.00 1016 10 16 N/A
8:52 am 08:52 Cloudy 48 8.9 39 3.9 71 71 N 8 13 30.02 1017 10 16 N/A
9:52 am 09:52 Mostly Cloudy 48 8.9 39 3.9 71 71 N 16 26 30.03 1017 10 16 N/A
10:03 am 10:03 Partly Cloudy 49 9.4 39 3.9 69 69 N 15 24 30.04 1017 10 16 N/A
10:35 am 10:35 Mostly Cloudy 49 9.4 38 3.3 66 66 NNE 12 19 30.04 1017 10 16 N/A
10:52 am 10:52 Mostly Cloudy 50 10 38 3.3 63 63 N 14 22 30.03 1017 10 16 N/A
11:34 am 11:34 Partly Cloudy 52 11.1 39 3.9 61 61 N 10 17 30.05 1018 10 16 N/A
11:52 am 11:52 Partly Cloudy 51 10.6 39 3.9 64 64 N 12 19 30.04 1017 10 16 N/A
12:52 pm 12:52 Partly Cloudy 54 12.2 38 3.3 55 55 NNE 12 19 30.02 1017 10 16 N/A
1:52 pm 13:52 Partly Cloudy 55 12.8 37 2.8 51 51 NNW 13 20 30.00 1016 10 16 N/A
2:52 pm 14:52 Mostly Sunny 56 13.3 36 2.2 47 47 NNW 10 17 29.99 1016 10 16 N/A
3:52 pm 15:52 Mostly Sunny 57 13.9 35 1.7 44 44 N 10 17 29.98 1015 10 16 N/A
4:52 pm 16:52 Mostly Sunny 57 13.9 34 1.1 42 42 NNW 12 19 29.98 1015 10 16 N/A
5:52 pm 17:52 Sunny 56 13.3 34 1.1 44 44 NNW 9 15 29.99 1016 10 16 N/A
6:52 pm 18:52 Clear 51 10.6 35 1.7 54 54 NNW 7 11 29.99 1016 10 16 N/A
7:52 pm 19:52 Clear 50 10 34 1.1 54 54 NW 6 9 30.00 1016 10 16 N/A
8:52 pm 20:52 Clear 47 8.3 35 1.7 63 63 NNW 3 6 30.01 1016 10 16 N/A
9:52 pm 21:52 Clear 46 7.8 36 2.2 68 68 NNW 6 9 30.02 1017 10 16 N/A
10:52 pm 22:52 Clear 45 7.2 36 2.2 71 71 NW 8 13 30.03 1017 10 16 N/A
11:52 pm 23:52 Clear 45 7.2 36 2.2 71 71 N 5 7 30.01 1016 10 16 N/A

Powered by AerisWeather